Regional Weather Roundup
Issued by NWS

Home | Current Version | Previous Version | Text Only | Print | Product List | Glossary On
Versions: 1 2 3 4 5 6 7 8 9 10 11 12 13 14 15 16 17 18 19 20 21 22 23 24 25 26 27 28 29 30 31 32 33 34 35 36 37 38 39 40 41 42 43 44 45 46 47 48 49 50
000
ASUS45 KPSR 291410
RWRAZ

ARIZONA HOURLY REGIONAL WEATHER ROUNDUP
NATIONAL WEATHER SERVICE PHOENIX AZ
700 AM MST FRI APR 29 2016

NOTE: FAIR INDICATES FEW OR NO CLOUDS BELOW 12,000 FEET WITH NO
SIGNIFICANT WEATHER AND/OR OBSTRUCTIONS TO VISIBILITY.

AZZ001>003-036-291500-
NORTHWEST ARIZONA

CITY           SKY/WX    TMP DP  RH WIND       PRES   REMARKS
BULLHEAD CITY  SUNNY     57  52  82 CALM      29.89R
KINGMAN        SUNNY     48  44  86 SE6       29.90S
$$

AZZ004>008-015-016-018-291500-
NORTH CENTRAL ARIZONA

CITY           SKY/WX    TMP DP  RH WIND       PRES   REMARKS
GRAND CANYON   LGT RAIN  38  36  92 VRB5      29.92R WCI  34
WILLIAMS       LGT RAIN  37  36  93 W10       30.01R WCI  30
PRESCOTT       CLOUDY    44  40  85 CALM      29.93R
FLAGSTAFF      CLOUDY    37  35  92 W10       29.93R WCI  30
PAYSON         CLOUDY    46  34  61 VRB3      29.95R
PAGE           CLOUDY    47  43  86 W3        29.86R
$$

AZZ009>014-017-291500-
NORTHEAST ARIZONA

CITY           SKY/WX    TMP DP  RH WIND       PRES   REMARKS
WINSLOW        PTSUNNY   44  31  60 NE3       29.89R
SAINT JOHNS    CLOUDY    42  26  53 SE3       29.89R
WINDOW ROCK    CLOUDY    35  18  49 CALM      29.88S
SHOW LOW       CLOUDY    37  19  48 S9        29.94R WCI  31
$$

AZZ023-291500-
GREATER PHOENIX AREA

CITY           SKY/WX    TMP DP  RH WIND       PRES   REMARKS
PHOENIX        PTSUNNY   65  38  36 N5        29.85R
BUCKEYE        PTSUNNY   57  36  44 CALM      29.89R
GLENDALE       PTSUNNY   64  39  39 SW9       29.87R
LUKE AFB       PTSUNNY   62  40  43 SW12      29.85R
DEER VALLEY    CLOUDY    63  37  38 S5        29.86R
SCOTTSDALE     CLOUDY    63  37  38 CALM      29.88R
MESA-FALCON    PTSUNNY  N/A N/A N/A E12       29.85R
MESA-GATEWAY   PTSUNNY   57  36  44 SE8       29.88R
CHANDLER       PTSUNNY   63  37  39 SE7       29.87R
$$

AZZ027-028-291500-
SOUTHWEST MARICOPA COUNTY AND PINAL COUNTY

CITY           SKY/WX    TMP DP  RH WIND       PRES   REMARKS
CASA GRANDE    CLOUDY    59  30  33 CALM      29.90R
GILA BEND      CLOUDY    60  36  41 S3        29.87R
$$

AZZ503-504-507>509-291500-
SOUTHEAST ARIZONA

CITY           SKY/WX    TMP DP  RH WIND       PRES   REMARKS
TUCSON         SUNNY     53  31  42 S6        29.95R
DAVIS-MONTHAN  SUNNY     53  30  41 S8        29.93R
RYAN FIELD     SUNNY     50  28  43 MISG      29.95R
NOGALES        SUNNY     44  30  57 CALM      29.96R
SIERRA VISTA   SUNNY     50  27  40 W5        29.97R
DOUGLAS        SUNNY     50  29  44 NE3       29.96R
SAFFORD        SUNNY     57  29  34 NW10      29.89R
$$

AZZ020-021-025-026-031-291500-
SOUTHWEST ARIZONA

CITY           SKY/WX    TMP DP  RH WIND       PRES   REMARKS
YUMA           MOSUNNY   60  43  53 SW6       29.87R
$$

CAZ031-033-041-043-047-048-061-291500-
SOUTHERN CALIFORNIA

CITY           SKY/WX    TMP DP  RH WIND       PRES   REMARKS
DOWNTOWN L.A.  CLOUDY    59  49  69 SE3       30.00R
L.A. AIRPORT   PTSUNNY   57  49  74 E8        30.00R
SAN DIEGO      PTSUNNY   60  46  59 E5        30.02R
BURBANK        PTSUNNY   53  46  77 CALM      30.00R
ONTARIO        MOSUNNY   51  46  83 CALM      30.01R
RIVERSIDE      PTSUNNY   51  45  79 CALM      30.02R
PALM SPRINGS   SUNNY     63  43  48 VRB3      29.89R
EL CENTRO NAS  SUNNY     60  41  49 NW5       29.89R
IMPERIAL       SUNNY     58  43  57 W6        29.86R
BLYTHE         SUNNY     59  41  51 CALM      29.85R
NEEDLES        SUNNY     61  53  75 SW3       29.86R
$$

NVZ020-UTZ003-291500-
SOUTHERN NEVADA-UTAH

CITY           SKY/WX    TMP DP  RH WIND       PRES   REMARKS
LAS VEGAS      MOSUNNY   58  41  53 VRB3      29.85R
SALT LAKE CITY PTSUNNY   47  32  56 CALM      29.86S
$$

NMZ009-TXZ055-291500-
NEW MEXICO-WEST TEXAS

CITY           SKY/WX    TMP DP  RH WIND       PRES   REMARKS
ALBUQUERQUE    MOSUNNY   46  39  76 CALM      29.86R
EL PASO        SUNNY     58  19  22 W16       29.89R
$$


........................KEY........................
SKY/WX - SKY CONDITION/WEATHER
TMP    - TEMPERATURE IN FAHRENHEIT
DP     - DEW POINT IN FAHRENHEIT
RH     - RELATIVE HUMIDITY IN PERCENT
WIND   - DIRECTION AND SPEED IN MILES PER HOUR (MPH)
VRB    - VARIABLE WIND DIRECTION
PRES   - MEAN SEA LEVEL PRESSURE IN INCHES OF MERCURY
         F - FALLING PRESSURE   R - RISING PRESSURE
         S - STEADY PRESSURE
VSB    - VISIBILITY IN MILES
HX     - HEAT INDEX IN FAHRENHEIT
WCI    - WIND CHILL INDEX IN FAHRENHEIT
TC     - TEMPERATURE IN CELSIUS WHICH IS ALSO KNOWN AS
         TEMPERATURE IN CENTIGRADE
AFB    - AIR FORCE BASE
         LUKE AFB IS LUKE AIR FORCE BASE
         DAVIS-MONTHAN IS DAVIS-MONTHAN AIR FORCE BASE
NAS    - NAVAL AIR STATION
         EL CENTRO NAS IS EL CENTRO NAVAL AIR STATION
N/A    - NOT AVAILABLE




USA.gov is the U.S. government's official web portal to all federal, state and local government web resources and services.